GFSMW_prec_snow_114.txt.gz
Snowfall_Accumulation
0.0 0.0 0.0 0.0 0.0 0.0 0.0 0.0 0.0 0.0 0.0 0.0 0.0 0.0 0.0 0.0 0.0 0.0 0.0 0.0 0.0 0.0 0.0 0.0 0.0 0.0 0.0 0.0 0.0 0.0 0.0 0.0 0.0 0.0 0.0 0.0 0.0 0.0 0.0 0.0 0.0 0.0 0.0
0.0 0.0 0.0 0.0 0.0 0.0 0.0 0.0 0.0 0.0 0.0 0.0 0.0 0.0 0.0 0.0 0.0 0.0 0.0 0.0 0.0 0.0 0.0 0.0 0.0 0.0 0.0 0.0 0.0 0.0 0.0 0.0 0.0 0.0 0.0 0.0 0.0 0.0 0.0 0.0 0.0 0.0 0.0
0.0 0.0 0.0 0.0 0.0 0.0 0.0 0.0 0.0 0.0 0.0 0.0 0.0 0.0 0.0 0.0 0.0 0.0 0.0 0.0 0.0 0.0 0.0 0.0 0.0 0.0 0.0 0.0 0.0 0.0 0.0 0.0 0.0 0.0 0.0 0.0 0.0 0.0 0.0 0.0 0.0 0.0 0.0
0.0 0.0 0.0 0.0 0.0 0.0 0.0 0.0 0.0 0.0 0.0 0.0 0.0 0.0 0.0 0.0 0.0 0.0 0.0 0.0 0.0 0.0 0.0 0.0 0.0 0.0 0.0 0.0 0.0 0.0 0.0 0.0 0.0 0.0 0.0 0.0 0.0 0.0 0.0 0.0 0.0 0.0 0.0
0.0 0.0 0.0 0.0 0.0 0.0 0.0 0.0 0.0 0.0 0.0 0.0 0.0 0.0 0.0 0.0 0.0 0.0 0.0 0.0 0.0 0.0 0.0 0.0 0.0 0.0 0.0 0.0 0.0 0.0 0.0 0.0 0.0 0.0 0.0 0.0 0.0 0.0 0.0 0.0 0.0 0.0 0.0
0.0 0.0 0.0 0.0 0.0 0.0 0.0 0.0 0.0 0.0 0.0 0.0 0.0 0.0 0.0 0.0 0.0 0.0 0.0 0.0 0.0 0.0 0.0 0.0 0.0 0.0 0.0 0.0 0.0 0.0 0.0 0.0 0.0 0.0 0.0 0.0 0.0 0.0 0.0 0.0 0.0 0.0 0.0
0.0 0.0 0.0 0.0 0.0 0.0 0.0 0.0 0.0 0.0 0.0 0.0 0.0 0.0 0.0 0.0 0.0 0.0 0.0 0.0 0.0 0.0 0.0 0.0 0.0 0.0 0.0 0.0 0.0 0.0 0.0 0.0 0.0 0.0 0.0 0.0 0.0 0.0 0.0 0.0 0.0 0.0 0.0
0.0 0.0 0.0 0.0 0.0 0.0 0.0 0.0 0.0 0.0 0.0 0.0 0.0 0.0 0.0 0.0 0.0 0.0 0.0 0.0 0.0 0.0 0.0 0.0 0.0 0.0 0.0 0.0 0.0 0.0 0.0 0.0 0.0 0.0 0.0 0.0 0.0 0.0 0.0 0.0 0.0 0.0 0.0
0.0 0.0 0.0 0.0 0.0 0.0 0.0 0.0 0.0 0.0 0.0 0.0 0.0 0.0 0.0 0.0 0.0 0.0 0.0 0.0 0.0 0.0 0.0 0.0 0.0 0.0 0.0 0.0 0.0 0.0 0.0 0.0 0.0 0.0 0.0 0.0 0.0 0.0 0.0 0.0 0.0 0.0 0.0
0.0 0.0 0.0 0.0 0.0 0.0 0.0 0.0 0.0 0.0 0.0 0.0 0.0 0.0 0.0 0.0 0.0 0.0 0.0 0.0 0.0 0.0 0.0 0.0 0.0 0.0 0.0 0.0 0.0 0.0 0.0 0.0 0.0 0.0 0.0 0.0 0.0 0.0 0.0 0.0 0.0 0.0 0.0
0.0 0.0 0.0 0.0 0.0 0.0 0.0 0.0 0.0 0.0 0.0 0.0 0.0 0.0 0.0 0.0 0.0 0.0 0.0 0.0 0.0 0.0 0.0 0.0 0.0 0.0 0.0 0.0 0.0 0.0 0.0 0.0 0.0 0.0 0.0 0.0 0.0 0.0 0.0 0.0 0.0 0.0 0.0
0.0 0.0 0.0 0.0 0.0 0.0 0.0 0.0 0.0 0.0 0.0 0.0 0.0 0.0 0.0 0.0 0.0 0.0 0.0 0.0 0.0 0.0 0.0 0.0 0.0 0.0 0.0 0.0 0.0 0.0 0.0 0.0 0.0 0.0 0.0 0.0 0.0 0.0 0.0 0.0 0.0 0.0 0.0
0.0 0.0 0.0 0.0 0.0 0.0 0.0 0.0 0.0 0.0 0.0 0.0 0.0 0.0 0.0 0.0 0.0 0.0 0.0 0.0 0.0 0.0 0.0 0.0 0.0 0.0 0.0 0.0 0.0 0.0 0.0 0.0 0.0 0.0 0.0 0.0 0.0 0.0 0.0 0.0 0.0 0.0 0.0
0.0 0.0 0.0 0.0 0.0 0.0 0.0 0.0 0.0 0.0 0.0 0.0 0.0 0.0 0.0 0.0 0.0 0.0 0.0 0.0 0.0 0.0 0.0 0.0 0.0 0.0 0.0 0.0 0.0 0.0 0.0 0.0 0.0 0.0 0.0 0.0 0.0 0.0 0.0 0.1 0.1 0.1 0.1
0.0 0.0 0.0 0.0 0.0 0.0 0.0 0.0 0.0 0.0 0.0 0.0 0.0 0.0 0.0 0.0 0.0 0.0 0.0 0.0 0.0 0.0 0.0 0.0 0.0 0.0 0.0 0.0 0.0 0.0 0.0 0.0 0.0 0.0 0.0 0.0 0.0 0.0 0.0 0.0 0.0 0.0 0.1
0.1 0.0 0.0 0.0 0.0 0.0 0.0 0.1 0.1 0.1 0.0 0.2 0.0 0.0 0.0 0.0 0.0 0.0 0.0 0.0 0.0 0.0 0.0 0.0 0.0 0.0 0.0 0.0 0.0 0.0 0.0 0.0 0.0 0.0 0.0 0.0 0.0 0.0 0.0 0.0 0.0 0.0 0.1
0.2 0.0 0.5 0.0 0.2 0.3 0.4 0.5 0.5 0.4 0.1 0.4 0.2 0.4 1.4 0.0 0.9 0.9 0.0 0.1 0.2 0.0 0.0 0.1 0.1 0.0 0.0 0.0 0.0 0.0 0.0 0.0 0.0 0.0 0.0 0.0 0.0 0.0 0.0 0.0 0.0 0.0 0.1
2.9 2.3 2.2 2.1 1.7 0.9 0.9 0.4 0.7 0.6 0.4 0.7 0.6 1.0 1.1 1.9 2.6 2.6 1.5 1.3 0.6 0.6 0.8 1.3 0.3 0.2 0.5 0.0 0.0 0.0 0.0 0.0 0.0 0.0 0.0 0.0 0.0 0.0 0.0 0.1 0.1 0.1 0.0
5.1 7.8 2.8 2.7 3.2 2.7 2.9 2.7 1.1 1.0 0.6 1.6 1.6 2.1 2.4 1.6 1.5 1.2 1.0 0.9 1.1 0.8 1.8 0.9 0.8 0.9 0.7 1.0 1.0 1.5 0.0 0.0 0.0 0.0 0.0 0.0 0.0 0.1 0.1 0.1 0.1 0.0 0.0
5.5 5.0 8.6 8.1 6.4 6.5 4.6 3.8 2.5 3.2 4.1 4.9 6.3 2.3 1.5 1.8 3.5 2.7 4.1 5.4 2.5 2.9 3.3 6.0 2.9 4.6 1.6 2.7 3.8 1.2 1.9 0.0 4.1 0.0 0.0 0.0 0.0 0.2 0.1 0.0 0.1 0.1 0.1
5.0 5.2 4.8 6.3 8.6 8.3 8.6 7.1 4.9 4.9 4.5 5.6 5.7 4.9 5.6 7.4 7.4 7.0 7.8 11.2 13.1 9.8 4.5 5.5 7.0 7.2 5.3 7.7 9.3 4.7 7.8 6.3 2.5 2.8 0.0 0.0 0.2 0.3 0.1 0.0 0.0 2.1 0.5
3.9 3.3 3.7 3.3 2.7 2.2 2.1 6.3 8.2 8.0 6.9 6.1 5.3 6.1 6.1 7.0 8.4 8.6 9.7 9.7 11.1 14.3 16.6 15.3 13.7 13.5 12.6 12.6 10.5 10.1 9.9 8.5 7.4 6.3 5.0 4.3 3.0 2.0 2.4 0.7 0.5 2.1 1.8
2.3 1.2 1.0 0.5 0.2 0.4 0.2 0.9 2.7 4.3 5.0 5.3 6.2 5.9 5.6 5.6 5.2 5.4 6.6 7.6 8.1 7.9 8.1 8.9 10.9 12.4 13.3 14.1 13.8 14.8 14.0 12.5 11.6 12.1 11.8 10.9 7.4 5.4 5.3 4.6 5.6 6.3 3.1
1.7 0.6 0.1 0.0 0.3 0.5 0.6 0.1 0.0 0.1 0.6 0.9 1.1 2.0 2.5 2.7 2.8 3.0 3.2 3.5 4.5 5.4 6.2 6.4 6.3 6.4 6.1 7.4 7.9 8.3 8.1 7.9 10.3 10.6 11.9 10.9 13.7 15.8 12.9 18.4 16.9 11.8 14.7
3.2 1.2 0.6 0.5 0.9 0.4 0.3 0.5 0.5 0.1 0.1 0.1 0.5 0.7 0.9 1.2 1.4 1.8 1.8 1.8 3.1 2.5 2.4 3.7 3.4 3.7 5.7 7.6 6.5 6.5 8.2 8.4 9.2 13.8 19.8 19.8 20.0 19.5 19.6 19.2 18.7 18.0 16.6
2.3 1.5 1.5 1.0 1.3 0.1 0.4 0.4 0.2 0.0 0.0 0.0 0.6 0.2 0.8 0.4 0.7 0.8 1.4 2.0 1.8 1.8 1.2 1.3 4.9 5.6 10.2 13.9 13.4 13.3 13.3 13.9 13.3 12.8 12.9 12.8 11.8 11.4 11.5 10.3 10.3 9.4 8.9

GFSMW_prec_snow_117.txt.gz
Snowfall_Accumulation
0.0 0.0 0.0 0.0 0.0 0.0 0.0 0.0 0.0 0.0 0.0 0.0 0.0 0.0 0.0 0.0 0.0 0.0 0.0 0.0 0.0 0.0 0.0 0.0 0.0 0.0 0.0 0.0 0.0 0.0 0.0 0.0 0.0 0.0 0.0 0.0 0.0 0.0 0.0 0.0 0.0 0.0 0.0
0.0 0.0 0.0 0.0 0.0 0.0 0.0 0.0 0.0 0.0 0.0 0.0 0.0 0.0 0.0 0.0 0.0 0.0 0.0 0.0 0.0 0.0 0.0 0.0 0.0 0.0 0.0 0.0 0.0 0.0 0.0 0.0 0.0 0.0 0.0 0.0 0.0 0.0 0.0 0.0 0.0 0.0 0.0
0.0 0.0 0.0 0.0 0.0 0.0 0.0 0.0 0.0 0.0 0.0 0.0 0.0 0.0 0.0 0.0 0.0 0.0 0.0 0.0 0.0 0.0 0.0 0.0 0.0 0.0 0.0 0.0 0.0 0.0 0.0 0.0 0.0 0.0 0.0 0.0 0.0 0.0 0.0 0.0 0.0 0.0 0.0
0.0 0.0 0.0 0.0 0.0 0.0 0.0 0.0 0.0 0.0 0.0 0.0 0.0 0.0 0.0 0.0 0.0 0.0 0.0 0.0 0.0 0.0 0.0 0.0 0.0 0.0 0.0 0.0 0.0 0.0 0.0 0.0 0.0 0.0 0.0 0.0 0.0 0.0 0.0 0.0 0.0 0.0 0.0
0.0 0.0 0.0 0.0 0.0 0.0 0.0 0.0 0.0 0.0 0.0 0.0 0.0 0.0 0.0 0.0 0.0 0.0 0.0 0.0 0.0 0.0 0.0 0.0 0.0 0.0 0.0 0.0 0.0 0.0 0.0 0.0 0.0 0.0 0.0 0.0 0.0 0.0 0.0 0.0 0.0 0.0 0.0
0.0 0.0 0.0 0.0 0.0 0.0 0.0 0.0 0.0 0.0 0.0 0.0 0.0 0.0 0.0 0.0 0.0 0.0 0.0 0.0 0.0 0.0 0.0 0.0 0.0 0.0 0.0 0.0 0.0 0.0 0.0 0.0 0.0 0.0 0.0 0.0 0.0 0.0 0.0 0.0 0.0 0.0 0.0
0.0 0.0 0.0 0.0 0.0 0.0 0.0 0.0 0.0 0.0 0.0 0.0 0.0 0.0 0.0 0.0 0.0 0.0 0.0 0.0 0.0 0.0 0.0 0.0 0.0 0.0 0.0 0.0 0.0 0.0 0.0 0.0 0.0 0.0 0.0 0.0 0.0 0.0 0.0 0.0 0.0 0.0 0.0
3.1 1.7 0.5 0.0 0.0 0.0 0.0 0.0 0.0 0.0 0.0 0.0 0.0 0.0 0.0 0.0 0.0 0.0 0.0 0.0 0.0 0.0 0.0 0.0 0.0 0.0 0.0 0.0 0.0 0.0 0.0 0.0 0.0 0.0 0.0 0.0 0.0 0.0 0.0 0.0 0.0 0.0 0.0
0.0 3.1 1.6 0.4 0.0 0.0 0.0 0.0 0.0 0.0 0.0 0.0 0.0 0.0 0.0 0.0 0.0 0.0 0.0 0.0 0.0 0.0 0.0 0.0 0.0 0.0 0.0 0.0 0.0 0.0 0.0 0.0 0.0 0.0 0.0 0.0 0.0 0.0 0.0 0.0 0.0 0.0 0.0
3.1 0.0 1.6 0.8 0.0 0.0 0.0 0.0 0.0 0.0 0.0 0.0 0.0 0.0 0.0 0.0 0.0 0.0 0.0 0.0 0.0 0.0 0.0 0.0 0.0 0.0 0.0 0.0 0.0 0.0 0.0 0.0 0.0 0.0 0.0 0.0 0.0 0.0 0.0 0.0 0.0 0.0 0.0
1.0 1.0 0.9 0.6 0.0 0.0 0.0 0.0 0.0 0.0 0.0 0.0 0.0 0.0 0.0 0.0 0.0 0.0 0.0 0.0 0.0 0.0 0.0 0.0 0.0 0.0 0.0 0.0 0.0 0.0 0.0 0.0 0.0 0.0 0.0 0.0 0.0 0.0 0.0 0.0 0.0 0.0 0.0
0.0 0.3 0.2 0.1 0.0 0.0 0.0 0.0 0.0 0.0 0.0 0.0 0.0 0.0 0.0 0.0 0.0 0.0 0.0 0.0 0.0 0.0 0.0 0.0 0.0 0.0 0.0 0.0 0.0 0.0 0.0 0.0 0.0 0.0 0.0 0.0 0.0 0.0 0.0 0.0 0.0 0.0 0.0
0.0 0.0 0.0 0.0 0.0 0.0 0.0 0.0 0.0 0.0 0.0 0.0 0.0 0.0 0.0 0.0 0.0 0.0 0.0 0.0 0.0 0.0 0.0 0.0 0.0 0.0 0.0 0.0 0.0 0.0 0.0 0.0 0.0 0.0 0.0 0.0 0.0 0.0 0.0 0.0 0.0 0.0 0.0
0.0 0.0 0.0 0.0 0.0 0.0 0.0 0.0 0.0 0.0 0.0 0.0 0.0 0.0 0.0 0.0 0.0 0.0 0.0 0.0 0.0 0.0 0.0 0.0 0.0 0.0 0.0 0.0 0.0 0.0 0.0 0.0 0.0 0.0 0.0 0.0 0.0 0.0 0.0 0.1 0.1 0.1 0.1
0.0 0.0 0.0 0.0 0.0 0.0 0.0 0.0 0.0 0.0 0.0 0.0 0.0 0.0 0.0 0.0 0.0 0.0 0.0 0.0 0.0 0.0 0.0 0.0 0.0 0.0 0.0 0.0 0.0 0.0 0.0 0.0 0.0 0.0 0.0 0.0 0.0 0.0 0.0 0.0 0.0 0.0 0.1
0.1 0.0 0.0 0.0 0.0 0.0 0.1 0.1 0.1 0.2 0.0 0.2 0.0 0.0 0.0 0.0 0.0 0.0 0.0 0.0 0.0 0.0 0.0 0.0 0.0 0.0 0.0 0.0 0.0 0.0 0.0 0.0 0.0 0.0 0.0 0.0 0.0 0.0 0.0 0.0 0.0 0.0 0.1
0.2 0.0 0.5 0.1 0.3 0.4 0.5 0.6 0.7 0.4 0.1 0.4 0.2 0.4 1.4 0.0 0.9 0.9 0.0 0.1 0.2 0.0 0.0 0.1 0.1 0.0 0.3 0.0 0.0 0.0 0.0 0.0 0.0 0.0 0.0 0.0 0.0 0.0 0.0 0.0 0.0 0.0 0.1
2.9 2.3 2.2 2.1 1.7 1.0 1.0 0.6 0.8 0.7 0.4 0.7 0.6 1.0 1.1 1.9 2.6 2.6 1.5 1.3 0.6 0.6 0.8 1.3 0.3 0.2 1.0 0.6 0.7 0.8 0.8 0.7 0.0 0.0 0.0 0.0 0.0 0.0 0.0 0.1 0.1 0.1 0.0
5.1 7.8 2.8 2.8 3.2 2.7 2.9 2.9 1.3 1.3 0.6 1.6 1.6 2.1 2.4 1.6 1.5 1.2 1.0 0.9 1.1 0.8 1.8 0.9 0.8 0.9 1.5 2.1 2.4 2.8 1.2 0.8 0.9 1.4 0.0 0.0 0.0 0.1 0.1 0.1 0.1 0.0 0.0
5.6 5.1 8.6 8.1 6.4 6.5 4.6 3.9 2.6 3.2 4.1 4.9 6.3 2.3 1.5 1.8 3.5 2.7 4.1 5.4 2.5 2.9 3.3 6.0 2.9 4.6 1.6 2.7 4.6 2.3 3.1 1.3 5.7 2.1 2.8 3.9 0.0 0.2 0.1 0.0 0.1 0.1 0.1
5.0 5.2 4.8 6.3 8.8 8.4 8.6 7.1 4.9 4.9 4.5 5.6 5.7 4.9 5.6 7.4 7.4 7.0 7.8 11.2 13.1 9.8 4.5 5.5 7.0 7.2 5.3 7.7 9.3 4.7 8.2 7.2 3.7 4.5 2.4 3.2 3.9 3.9 0.1 0.0 0.0 2.1 0.5
3.9 3.3 3.7 3.3 2.7 2.2 2.1 6.3 8.2 8.0 6.9 6.1 5.3 6.1 6.1 7.0 8.4 8.6 9.7 9.7 11.1 14.3 16.6 15.3 13.7 13.5 12.6 12.6 10.5 10.1 9.9 8.5 7.7 6.9 6.3 6.6 5.7 4.9 5.4 3.9 3.2 4.1 3.8
2.3 1.2 1.0 0.5 0.2 0.4 0.2 0.9 2.7 4.3 5.0 5.3 6.2 5.9 5.6 5.6 5.2 5.4 6.6 7.6 8.1 7.9 8.1 8.9 10.9 12.4 13.3 14.1 13.8 14.8 14.0 12.5 11.6 12.1 11.8 11.2 7.9 6.4 7.3 7.3 8.4 8.9 5.3
1.7 0.6 0.1 0.0 0.3 0.5 0.6 0.1 0.0 0.1 0.6 0.9 1.1 2.0 2.5 2.7 2.8 3.0 3.2 3.5 4.5 5.4 6.3 6.4 6.3 6.4 6.1 7.4 7.9 8.3 8.1 7.9 10.3 10.6 11.9 10.9 13.7 15.8 13.2 19.0 18.1 13.7 17.1
3.2 1.2 0.6 0.5 0.9 0.4 0.3 0.5 0.5 0.1 0.1 0.1 0.5 0.7 0.9 1.2 1.4 1.9 1.8 1.8 3.1 2.5 2.4 3.8 3.4 3.7 5.7 7.6 6.5 6.5 8.2 8.4 9.2 13.8 19.8 19.8 20.0 19.5 19.6 19.2 19.0 18.6 17.5
2.3 1.5 1.5 1.0 1.3 0.1 0.4 0.4 0.2 0.0 0.0 0.0 0.6 0.2 0.8 0.4 0.7 0.8 1.4 2.0 1.8 1.8 1.2 1.3 4.9 5.6 10.2 13.9 13.4 13.3 13.3 13.9 13.3 12.8 12.9 12.8 11.8 11.5 11.5 10.3 10.3 9.4 8.9

GFSMW_prec_snow_123.txt.gz
Snowfall_Accumulation
0.0 0.0 0.0 0.0 0.0 0.0 0.0 0.0 0.0 0.0 0.0 0.0 0.0 0.0 0.0 0.0 0.0 0.0 0.0 0.0 0.0 0.0 0.0 0.0 0.0 0.0 0.0 0.0 0.0 0.0 0.0 0.0 0.0 0.0 0.0 0.0 0.0 0.0 0.0 0.0 0.0 0.0 0.0
0.0 0.0 0.0 0.0 0.0 0.0 0.0 0.0 0.0 0.0 0.0 0.0 0.0 0.0 0.0 0.0 0.0 0.0 0.0 0.0 0.0 0.0 0.0 0.0 0.0 0.0 0.0 0.0 0.0 0.0 0.0 0.0 0.0 0.0 0.0 0.0 0.0 0.0 0.0 0.0 0.0 0.0 0.0
0.0 0.0 0.0 0.0 0.0 0.0 0.0 0.0 0.0 0.0 0.0 0.0 0.0 0.0 0.0 0.0 0.0 0.0 0.0 0.0 0.0 0.0 0.0 0.0 0.0 0.0 0.0 0.0 0.0 0.0 0.0 0.0 0.0 0.0 0.0 0.0 0.0 0.0 0.0 0.0 0.0 0.0 0.0
0.0 0.0 0.0 0.0 0.0 0.0 0.0 0.0 0.0 0.0 0.0 0.0 0.0 0.0 0.0 0.0 0.0 0.0 0.0 0.0 0.0 0.0 0.0 0.0 0.0 0.0 0.0 0.0 0.0 0.0 0.0 0.0 0.0 0.0 0.0 0.0 0.0 0.0 0.0 0.0 0.0 0.0 0.0
0.0 0.0 0.0 0.0 0.0 0.0 0.0 0.0 0.0 0.0 0.0 0.0 0.0 0.0 0.0 0.0 0.0 0.0 0.0 0.0 0.0 0.0 0.0 0.0 0.0 0.0 0.0 0.0 0.0 0.0 0.0 0.0 0.0 0.0 0.0 0.0 0.0 0.0 0.0 0.0 0.0 0.0 0.0
0.0 0.0 0.0 0.0 0.0 0.0 0.0 0.0 0.0 0.0 0.0 0.0 0.0 0.0 0.0 0.0 0.0 0.0 0.0 0.0 0.0 0.0 0.0 0.0 0.0 0.0 0.0 0.0 0.0 0.0 0.0 0.0 0.0 0.0 0.0 0.0 0.0 0.0 0.0 0.0 0.0 0.0 0.0
0.0 0.0 0.0 0.0 0.0 0.0 0.0 0.0 0.0 0.0 0.0 0.0 0.0 0.0 0.0 0.0 0.0 0.0 0.0 0.0 0.0 0.0 0.0 0.0 0.0 0.0 0.0 0.0 0.0 0.0 0.0 0.0 0.0 0.0 0.0 0.0 0.0 0.0 0.0 0.0 0.0 0.0 0.0
3.1 1.7 0.5 0.0 0.0 0.0 0.0 0.0 0.0 0.0 0.0 0.0 0.0 0.0 0.0 0.0 0.0 0.0 0.0 0.0 0.0 0.0 0.0 0.0 0.0 0.0 0.0 0.0 0.0 0.0 0.0 0.0 0.0 0.0 0.0 0.0 0.0 0.0 0.0 0.0 0.0 0.0 0.0
0.0 3.1 1.6 1.6 0.9 0.0 0.0 0.0 0.0 0.0 0.0 0.0 0.0 0.0 0.0 0.0 0.0 0.0 0.0 0.0 0.0 0.0 0.0 0.0 0.0 0.0 0.0 0.0 0.0 0.0 0.0 0.0 0.0 0.0 0.0 0.0 0.0 0.0 0.0 0.0 0.0 0.0 0.0
3.1 0.0 1.6 0.8 0.0 0.0 0.0 0.0 0.0 0.0 0.0 0.0 0.0 0.0 0.0 0.0 0.0 0.0 0.0 0.0 0.0 0.0 0.0 0.0 0.0 0.0 0.0 0.0 0.0 0.0 0.0 0.0 0.0 0.0 0.0 0.0 0.0 0.0 0.0 0.0 0.0 0.0 0.0
1.0 1.0 0.9 0.6 0.0 0.0 0.0 0.2 0.2 0.0 0.1 0.0 0.0 0.0 0.0 0.0 0.0 0.0 0.0 0.0 0.0 0.0 0.0 0.0 0.0 0.0 0.0 0.0 0.0 0.0 0.0 0.0 0.0 0.0 0.0 0.0 0.0 0.0 0.0 0.0 0.0 0.0 0.0
0.0 0.3 0.2 0.1 0.0 0.0 0.0 0.0 0.0 0.0 0.0 0.0 0.0 0.0 0.0 0.0 0.0 0.0 0.0 0.0 0.0 0.0 0.0 0.0 0.0 0.0 0.0 0.0 0.0 0.0 0.0 0.0 0.0 0.0 0.0 0.0 0.0 0.0 0.0 0.0 0.0 0.0 0.0
0.0 0.0 0.0 0.0 0.0 0.0 0.0 0.0 0.0 0.0 0.0 0.0 0.0 0.0 0.0 0.0 0.0 0.0 0.0 0.0 0.0 0.0 0.0 0.0 0.0 0.0 0.0 0.0 0.0 0.0 0.0 0.0 0.0 0.0 0.0 0.0 0.0 0.0 0.0 0.0 0.0 0.0 0.0
0.0 0.0 0.0 0.0 0.0 0.0 0.0 0.0 0.0 0.0 0.0 0.0 0.0 0.0 0.0 0.0 0.0 0.0 0.0 0.0 0.0 0.0 0.0 0.0 0.0 0.0 0.0 0.0 0.0 0.0 0.0 0.0 0.0 0.0 0.0 0.0 0.0 0.0 0.0 0.1 0.1 0.1 0.1
0.0 0.0 0.0 0.0 0.0 0.0 0.0 0.0 0.0 0.0 0.0 0.0 0.0 0.0 0.0 0.0 0.0 0.0 0.0 0.0 0.0 0.0 0.0 0.0 0.0 0.0 0.0 0.0 0.0 0.0 0.0 0.0 0.0 0.0 0.0 0.0 0.0 0.0 0.0 0.0 0.0 0.0 0.1
0.1 0.0 0.0 0.0 0.0 0.0 0.1 0.1 0.1 0.2 0.0 0.2 0.0 0.0 0.0 0.0 0.0 0.0 0.0 0.0 0.0 0.0 0.0 0.0 0.0 0.0 0.0 0.0 0.0 0.0 0.0 0.0 0.0 0.0 0.0 0.0 0.0 0.0 0.0 0.0 0.0 0.0 0.1
0.2 0.0 0.5 0.1 0.3 0.4 0.6 0.7 0.7 0.4 0.1 0.4 0.2 0.4 1.4 0.0 0.9 0.9 0.0 0.1 0.2 0.0 0.0 0.1 0.1 0.0 0.3 0.0 0.0 0.0 0.0 0.0 0.0 0.0 0.0 0.0 0.0 0.0 0.0 0.0 0.0 0.0 0.1
2.9 2.3 2.2 2.1 1.8 1.0 1.1 0.8 1.0 0.7 0.4 0.7 0.6 1.0 1.1 1.9 2.6 2.6 1.5 1.3 0.6 0.6 0.8 1.3 0.4 0.2 1.1 0.6 0.7 0.8 0.8 0.7 0.0 0.9 1.0 0.9 0.1 0.0 0.0 0.1 0.1 0.1 0.0
5.1 7.8 2.8 2.8 3.3 2.7 2.9 2.9 1.6 1.5 0.6 1.6 1.6 2.1 2.4 1.6 1.5 1.2 1.0 0.9 1.1 0.8 1.8 0.9 0.8 1.0 1.5 2.1 2.4 2.8 1.2 0.8 0.9 1.4 0.9 0.9 1.5 3.1 4.3 0.8 0.9 1.2 1.7
5.6 5.1 8.6 8.1 6.4 6.6 4.7 4.0 2.6 3.2 4.1 4.9 6.3 2.3 1.5 1.8 3.5 2.7 4.1 5.4 2.5 2.9 3.3 6.0 2.9 4.7 1.6 2.7 4.6 2.3 3.1 1.3 5.7 2.7 2.8 3.9 1.7 2.1 2.3 0.9 1.3 1.9 2.5
5.0 5.2 4.8 6.3 8.9 8.4 8.6 7.1 4.9 4.9 4.5 5.6 5.7 4.9 5.6 7.4 7.4 7.0 7.8 11.2 13.1 9.8 4.5 5.5 7.0 7.2 5.3 7.7 9.3 4.7 8.2 7.3 3.9 4.7 2.8 4.3 5.4 6.1 2.7 3.2 4.5 7.2 3.2
3.9 3.3 3.7 3.4 2.7 2.2 2.1 6.3 8.2 8.0 6.9 6.1 5.3 6.1 6.1 7.0 8.4 8.6 9.7 9.7 11.1 14.3 16.6 15.3 13.7 13.5 12.6 12.6 10.5 10.1 9.9 8.5 7.7 7.0 6.5 6.6 5.7 4.9 7.0 6.0 6.2 7.2 6.3
2.3 1.2 1.0 0.5 0.2 0.4 0.2 0.9 2.7 4.3 5.0 5.3 6.2 5.9 5.6 5.6 5.2 5.4 6.6 7.6 8.1 7.9 8.1 8.9 10.9 12.4 13.3 14.1 13.8 14.8 14.0 12.5 11.6 12.1 11.8 11.2 7.9 6.4 7.3 7.9 9.5 10.8 7.1
1.7 0.6 0.1 0.0 0.3 0.5 0.6 0.1 0.0 0.1 0.6 0.9 1.1 2.0 2.5 2.7 2.8 3.0 3.2 3.5 4.5 5.4 6.3 6.4 6.3 6.4 6.1 7.4 7.9 8.3 8.1 7.9 10.3 10.6 11.9 10.9 13.7 15.8 13.2 19.0 18.1 14.1 18.1
3.2 1.2 0.6 0.5 0.9 0.4 0.3 0.5 0.5 0.1 0.1 0.1 0.5 0.7 0.9 1.2 1.4 1.9 1.8 1.8 3.1 2.5 2.4 3.9 3.4 3.7 5.7 7.6 6.5 6.5 8.2 8.4 9.2 13.8 19.8 19.8 20.0 19.5 19.6 19.2 19.0 18.6 17.5
2.3 1.5 1.5 1.0 1.3 0.1 0.4 0.4 0.2 0.0 0.0 0.0 0.6 0.2 0.8 0.4 0.7 0.8 1.4 2.0 1.8 1.8 1.2 1.3 4.9 5.6 10.2 13.9 13.4 13.3 13.3 13.9 13.3 12.8 12.9 12.8 11.8 11.5 11.5 10.3 10.3 9.4 8.9

GFSMW_prec_snow_126.txt.gz
Snowfall_Accumulation
0.0 0.0 0.0 0.0 0.0 0.0 0.0 0.0 0.0 0.0 0.0 0.0 0.0 0.0 0.0 0.0 0.0 0.0 0.0 0.0 0.0 0.0 0.0 0.0 0.0 0.0 0.0 0.0 0.0 0.0 0.0 0.0 0.0 0.0 0.0 0.0 0.0 0.0 0.0 0.0 0.0 0.0 0.0
0.0 0.0 0.0 0.0 0.0 0.0 0.0 0.0 0.0 0.0 0.0 0.0 0.0 0.0 0.0 0.0 0.0 0.0 0.0 0.0 0.0 0.0 0.0 0.0 0.0 0.0 0.0 0.0 0.0 0.0 0.0 0.0 0.0 0.0 0.0 0.0 0.0 0.0 0.0 0.0 0.0 0.0 0.0
0.0 0.0 0.0 0.0 0.0 0.0 0.0 0.0 0.0 0.0 0.0 0.0 0.0 0.0 0.0 0.0 0.0 0.0 0.0 0.0 0.0 0.0 0.0 0.0 0.0 0.0 0.0 0.0 0.0 0.0 0.0 0.0 0.0 0.0 0.0 0.0 0.0 0.0 0.0 0.0 0.0 0.0 0.0
0.0 0.0 0.0 0.0 0.0 0.0 0.0 0.0 0.0 0.0 0.0 0.0 0.0 0.0 0.0 0.0 0.0 0.0 0.0 0.0 0.0 0.0 0.0 0.0 0.0 0.0 0.0 0.0 0.0 0.0 0.0 0.0 0.0 0.0 0.0 0.0 0.0 0.0 0.0 0.0 0.0 0.0 0.0
0.0 0.0 0.0 0.0 0.0 0.0 0.0 0.0 0.0 0.0 0.0 0.0 0.0 0.0 0.0 0.0 0.0 0.0 0.0 0.0 0.0 0.0 0.0 0.0 0.0 0.0 0.0 0.0 0.0 0.0 0.0 0.0 0.0 0.0 0.0 0.0 0.0 0.0 0.0 0.0 0.0 0.0 0.0
0.0 0.0 0.0 0.0 0.0 0.0 0.0 0.0 0.0 0.0 0.0 0.0 0.0 0.0 0.0 0.0 0.0 0.0 0.0 0.0 0.0 0.0 0.0 0.0 0.0 0.0 0.0 0.0 0.0 0.0 0.0 0.0 0.0 0.0 0.0 0.0 0.0 0.0 0.0 0.0 0.0 0.0 0.0
0.0 0.0 0.0 0.0 0.0 0.0 0.0 0.0 0.0 0.0 0.0 0.0 0.0 0.0 0.0 0.0 0.0 0.0 0.0 0.0 0.0 0.0 0.0 0.0 0.0 0.0 0.0 0.0 0.0 0.0 0.0 0.0 0.0 0.0 0.0 0.0 0.0 0.0 0.0 0.0 0.0 0.0 0.0
3.1 1.7 0.5 0.0 0.0 0.0 0.0 0.0 0.0 0.0 0.0 0.0 0.0 0.0 0.0 0.0 0.0 0.0 0.0 0.0 0.0 0.0 0.0 0.0 0.0 0.0 0.0 0.0 0.0 0.0 0.0 0.0 0.0 0.0 0.0 0.0 0.0 0.0 0.0 0.0 0.0 0.0 0.0
0.0 3.1 1.6 1.6 0.9 0.0 0.0 0.0 0.0 0.0 0.0 0.0 0.0 0.0 0.0 0.0 0.0 0.0 0.0 0.0 0.0 0.0 0.0 0.0 0.0 0.0 0.0 0.0 0.0 0.0 0.0 0.0 0.0 0.0 0.0 0.0 0.0 0.0 0.0 0.0 0.0 0.0 0.0
3.1 0.0 1.6 0.8 0.0 0.0 0.0 0.0 0.0 0.0 0.0 0.0 0.0 0.0 0.0 0.0 0.0 0.0 0.0 0.0 0.0 0.0 0.0 0.0 0.0 0.0 0.0 0.0 0.0 0.0 0.0 0.0 0.0 0.0 0.0 0.0 0.0 0.0 0.0 0.0 0.0 0.0 0.0
1.0 1.0 0.9 0.6 0.0 0.0 0.0 0.2 0.2 0.0 0.1 0.0 0.0 0.0 0.0 0.0 0.0 0.0 0.0 0.0 0.0 0.0 0.0 0.0 0.0 0.0 0.0 0.0 0.0 0.0 0.0 0.0 0.0 0.0 0.0 0.0 0.0 0.0 0.0 0.0 0.0 0.0 0.0
0.0 0.3 0.2 0.1 0.0 0.0 0.0 0.0 0.0 0.0 0.0 0.0 0.0 0.0 0.0 0.0 0.0 0.0 0.0 0.0 0.0 0.0 0.0 0.0 0.0 0.0 0.0 0.0 0.0 0.0 0.0 0.0 0.0 0.0 0.0 0.0 0.0 0.0 0.0 0.0 0.0 0.0 0.0
0.0 0.0 0.0 0.0 0.0 0.0 0.0 0.0 0.0 0.0 0.0 0.0 0.0 0.0 0.0 0.0 0.0 0.0 0.0 0.0 0.0 0.0 0.0 0.0 0.0 0.0 0.0 0.0 0.0 0.0 0.0 0.0 0.0 0.0 0.0 0.0 0.0 0.0 0.0 0.0 0.0 0.0 0.0
0.0 0.0 0.0 0.0 0.0 0.0 0.0 0.0 0.0 0.0 0.0 0.0 0.0 0.0 0.0 0.0 0.0 0.0 0.0 0.0 0.0 0.0 0.0 0.0 0.0 0.0 0.0 0.0 0.0 0.0 0.0 0.0 0.0 0.0 0.0 0.0 0.0 0.0 0.0 0.1 0.1 0.1 0.1
0.0 0.0 0.0 0.0 0.0 0.0 0.0 0.0 0.0 0.0 0.0 0.0 0.0 0.0 0.0 0.0 0.0 0.0 0.0 0.0 0.0 0.0 0.0 0.0 0.0 0.0 0.0 0.0 0.0 0.0 0.0 0.0 0.0 0.0 0.0 0.0 0.1 0.0 0.0 0.0 0.0 0.0 0.1
0.1 0.0 0.0 0.0 0.0 0.0 0.1 0.1 0.1 0.2 0.0 0.2 0.0 0.0 0.0 0.0 0.0 0.0 0.0 0.0 0.0 0.0 0.0 0.0 0.0 0.0 0.0 0.0 0.0 0.0 0.0 0.0 0.0 0.0 0.0 0.0 0.0 0.0 0.0 0.0 0.0 0.0 0.1
0.2 0.0 0.5 0.1 0.3 0.4 0.6 0.7 0.7 0.4 0.1 0.4 0.2 0.4 1.4 0.0 0.9 0.9 0.0 0.1 0.2 0.0 0.0 0.1 0.1 0.0 0.3 0.0 0.0 0.0 0.0 0.0 0.0 0.0 0.0 0.0 0.0 0.0 0.0 0.0 0.0 0.0 0.1
2.9 2.3 2.2 2.1 1.8 1.0 1.1 0.8 1.0 0.7 0.4 0.7 0.6 1.0 1.1 1.9 2.6 2.6 1.5 1.3 0.6 0.6 0.8 1.3 0.4 0.2 1.1 0.6 0.7 0.8 0.8 0.7 0.0 0.9 1.0 1.0 0.2 0.0 0.0 0.1 0.1 0.2 0.2
5.1 7.8 2.8 2.8 3.3 2.7 2.9 2.9 1.6 1.5 0.6 1.6 1.6 2.1 2.4 1.6 1.5 1.2 1.0 0.9 1.1 0.8 1.8 0.9 0.8 1.0 1.5 2.1 2.4 2.8 1.2 0.8 0.9 1.4 0.9 0.9 1.5 3.1 4.3 0.8 0.9 1.2 1.7
5.6 5.1 8.6 8.1 6.4 6.6 4.7 4.0 2.6 3.2 4.1 4.9 6.3 2.3 1.5 1.8 3.5 2.7 4.1 5.4 2.5 2.9 3.3 6.0 2.9 4.7 1.6 2.7 4.6 2.3 3.1 1.3 5.7 2.7 2.8 3.9 1.7 2.1 2.3 0.9 1.3 1.9 2.8
5.0 5.2 4.8 6.3 8.9 8.4 8.6 7.1 4.9 4.9 4.5 5.6 5.7 4.9 5.6 7.4 7.4 7.0 7.8 11.2 13.1 9.8 4.5 5.5 7.0 7.2 5.3 7.7 9.3 4.7 8.2 7.3 3.9 4.7 2.8 4.3 5.4 6.1 2.7 3.2 4.5 7.5 3.6
3.9 3.3 3.7 3.4 2.7 2.2 2.1 6.3 8.2 8.0 6.9 6.1 5.3 6.1 6.1 7.0 8.4 8.6 9.7 9.7 11.1 14.3 16.6 15.3 13.7 13.5 12.6 12.6 10.5 10.1 9.9 8.5 7.7 7.0 6.5 6.6 5.7 4.9 7.0 6.0 6.2 7.2 6.3
2.3 1.2 1.0 0.5 0.2 0.4 0.2 0.9 2.7 4.3 5.0 5.3 6.2 5.9 5.6 5.6 5.2 5.4 6.6 7.6 8.1 7.9 8.1 8.9 10.9 12.4 13.3 14.1 13.8 14.8 14.0 12.5 11.6 12.1 11.8 11.2 7.9 6.4 7.3 7.9 9.5 10.8 7.1
1.7 0.6 0.1 0.0 0.3 0.5 0.6 0.1 0.0 0.1 0.6 0.9 1.1 2.0 2.5 2.7 2.8 3.0 3.2 3.5 4.5 5.4 6.3 6.4 6.3 6.4 6.1 7.4 7.9 8.3 8.1 7.9 10.3 10.6 11.9 10.9 13.7 15.8 13.2 19.0 18.1 14.1 18.1
3.2 1.2 0.6 0.5 0.9 0.4 0.3 0.5 0.5 0.1 0.1 0.1 0.5 0.7 0.9 1.2 1.4 1.9 1.8 1.8 3.1 2.5 2.4 3.9 3.4 3.7 5.7 7.6 6.5 6.5 8.2 8.4 9.2 13.8 19.8 19.8 20.0 19.5 19.6 19.2 19.0 18.6 17.5
2.3 1.5 1.5 1.0 1.3 0.1 0.4 0.4 0.2 0.0 0.0 0.0 0.6 0.2 0.8 0.4 0.7 0.8 1.4 2.0 1.8 1.8 1.2 1.3 4.9 5.6 10.2 13.9 13.4 13.3 13.3 13.9 13.3 12.8 12.9 12.8 11.8 11.5 11.5 10.3 10.3 9.4 8.9

GFSMW_prec_snow_129.txt.gz
Snowfall_Accumulation
0.0 0.0 0.0 0.0 0.0 0.0 0.0 0.0 0.0 0.0 0.0 0.0 0.0 0.0 0.0 0.0 0.0 0.0 0.0 0.0 0.0 0.0 0.0 0.0 0.0 0.0 0.0 0.0 0.0 0.0 0.0 0.0 0.0 0.0 0.0 0.0 0.0 0.0 0.0 0.0 0.0 0.0 0.0
0.0 0.0 0.0 0.0 0.0 0.0 0.0 0.0 0.0 0.0 0.0 0.0 0.0 0.0 0.0 0.0 0.0 0.0 0.0 0.0 0.0 0.0 0.0 0.0 0.0 0.0 0.0 0.0 0.0 0.0 0.0 0.0 0.0 0.0 0.0 0.0 0.0 0.0 0.0 0.0 0.0 0.0 0.0
0.0 0.0 0.0 0.0 0.0 0.0 0.0 0.0 0.0 0.0 0.0 0.0 0.0 0.0 0.0 0.0 0.0 0.0 0.0 0.0 0.0 0.0 0.0 0.0 0.0 0.0 0.0 0.0 0.0 0.0 0.0 0.0 0.0 0.0 0.0 0.0 0.0 0.0 0.0 0.0 0.0 0.0 0.0
0.0 0.0 0.0 0.0 0.0 0.0 0.0 0.0 0.0 0.0 0.0 0.0 0.0 0.0 0.0 0.0 0.0 0.0 0.0 0.0 0.0 0.0 0.0 0.0 0.0 0.0 0.0 0.0 0.0 0.0 0.0 0.0 0.0 0.0 0.0 0.0 0.0 0.0 0.0 0.0 0.0 0.0 0.0
0.0 0.0 0.0 0.0 0.0 0.0 0.0 0.0 0.0 0.0 0.0 0.0 0.0 0.0 0.0 0.0 0.0 0.0 0.0 0.0 0.0 0.0 0.0 0.0 0.0 0.0 0.0 0.0 0.0 0.0 0.0 0.0 0.0 0.0 0.0 0.0 0.0 0.0 0.0 0.0 0.0 0.0 0.0
0.0 0.0 0.0 0.0 0.0 0.0 0.0 0.0 0.0 0.0 0.0 0.0 0.0 0.0 0.0 0.0 0.0 0.0 0.0 0.0 0.0 0.0 0.0 0.0 0.0 0.0 0.0 0.0 0.0 0.0 0.0 0.0 0.0 0.0 0.0 0.0 0.0 0.0 0.0 0.0 0.0 0.0 0.0
0.0 0.0 0.0 0.0 0.0 0.0 0.0 0.0 0.0 0.0 0.0 0.0 0.0 0.0 0.0 0.0 0.0 0.0 0.0 0.0 0.0 0.0 0.0 0.0 0.0 0.0 0.0 0.0 0.0 0.0 0.0 0.0 0.0 0.0 0.0 0.0 0.0 0.0 0.0 0.0 0.0 0.0 0.0
3.1 1.7 0.5 0.0 0.0 0.0 0.0 0.0 0.0 0.0 0.0 0.0 0.0 0.0 0.0 0.0 0.0 0.0 0.0 0.0 0.0 0.0 0.0 0.0 0.0 0.0 0.0 0.0 0.0 0.0 0.0 0.0 0.0 0.0 0.0 0.0 0.0 0.0 0.0 0.0 0.0 0.0 0.0
0.0 3.1 1.6 1.6 0.9 0.0 0.0 0.0 0.0 0.0 0.0 0.0 0.0 0.0 0.0 0.0 0.0 0.0 0.0 0.0 0.0 0.0 0.0 0.0 0.0 0.0 0.0 0.0 0.0 0.0 0.0 0.0 0.0 0.0 0.0 0.0 0.0 0.0 0.0 0.0 0.0 0.0 0.0
3.1 0.0 1.6 0.8 0.0 0.0 0.0 0.0 0.0 0.0 0.0 0.0 0.0 0.0 0.0 0.0 0.0 0.0 0.0 0.0 0.0 0.0 0.0 0.0 0.0 0.0 0.0 0.0 0.0 0.0 0.0 0.0 0.0 0.0 0.0 0.0 0.0 0.0 0.0 0.0 0.0 0.0 0.0
1.0 1.0 0.9 0.6 0.0 0.0 0.0 0.2 0.2 0.0 0.1 0.0 0.0 0.0 0.0 0.0 0.0 0.0 0.0 0.0 0.0 0.0 0.0 0.0 0.0 0.0 0.0 0.0 0.0 0.0 0.0 0.0 0.0 0.0 0.0 0.0 0.0 0.0 0.0 0.0 0.0 0.0 0.0
0.0 0.3 0.2 0.1 0.0 0.0 0.0 0.0 0.0 0.0 0.0 0.0 0.0 0.0 0.0 0.0 0.0 0.0 0.0 0.0 0.0 0.0 0.0 0.0 0.0 0.0 0.0 0.0 0.0 0.0 0.0 0.0 0.0 0.0 0.0 0.0 0.0 0.0 0.0 0.0 0.0 0.0 0.0
0.0 0.0 0.0 0.0 0.0 0.0 0.0 0.0 0.0 0.0 0.0 0.0 0.0 0.0 0.0 0.0 0.0 0.0 0.0 0.0 0.0 0.0 0.0 0.0 0.0 0.0 0.0 0.0 0.0 0.0 0.0 0.0 0.0 0.0 0.0 0.0 0.0 0.0 0.0 0.0 0.0 0.0 0.0
0.0 0.0 0.0 0.0 0.0 0.0 0.0 0.0 0.0 0.0 0.0 0.0 0.0 0.0 0.0 0.0 0.0 0.0 0.0 0.0 0.0 0.0 0.0 0.0 0.0 0.0 0.0 0.0 0.0 0.0 0.0 0.0 0.0 0.0 0.0 0.0 0.0 0.0 0.0 0.1 0.1 0.1 0.1
0.0 0.0 0.0 0.0 0.0 0.0 0.0 0.0 0.0 0.0 0.0 0.0 0.0 0.0 0.0 0.0 0.0 0.0 0.0 0.0 0.0 0.0 0.0 0.0 0.0 0.0 0.0 0.0 0.0 0.0 0.0 0.0 0.0 0.0 0.0 0.0 0.1 0.0 0.0 0.0 0.0 0.0 0.1
0.1 0.0 0.0 0.0 0.0 0.0 0.1 0.1 0.1 0.2 0.0 0.2 0.0 0.0 0.0 0.0 0.0 0.0 0.0 0.0 0.0 0.0 0.0 0.0 0.0 0.0 0.0 0.0 0.0 0.0 0.0 0.0 0.0 0.0 0.0 0.0 0.0 0.0 0.0 0.0 0.0 0.0 0.1
0.2 0.0 0.5 0.1 0.3 0.4 0.6 0.7 0.7 0.4 0.1 0.4 0.2 0.4 1.4 0.0 0.9 0.9 0.0 0.1 0.2 0.0 0.0 0.1 0.1 0.0 0.3 0.0 0.0 0.0 0.0 0.0 0.0 0.0 0.0 0.0 0.0 0.0 0.0 0.0 0.0 0.0 0.1
2.9 2.3 2.2 2.1 1.8 1.0 1.1 0.8 1.0 0.7 0.4 0.7 0.6 1.0 1.1 1.9 2.6 2.6 1.5 1.3 0.6 0.6 0.8 1.3 0.4 0.2 1.1 0.6 0.7 0.8 0.8 0.8 0.0 0.9 1.0 1.0 0.2 0.0 0.0 0.1 0.1 0.2 0.2
5.1 7.8 2.8 2.8 3.3 2.7 2.9 2.9 1.6 1.5 0.6 1.6 1.6 2.1 2.4 1.6 1.5 1.2 1.0 0.9 1.1 0.8 1.8 0.9 0.8 1.0 1.5 2.1 2.4 2.8 1.2 0.8 0.9 1.4 0.9 0.9 1.5 3.1 4.3 0.8 0.9 1.2 1.7
5.6 5.3 8.6 8.1 6.4 6.6 4.7 4.0 2.6 3.2 4.1 4.9 6.3 2.3 1.5 1.8 3.5 2.7 4.1 5.4 2.5 2.9 3.3 6.0 2.9 4.7 1.6 2.7 4.6 2.3 3.1 1.3 5.7 2.7 2.8 3.9 1.7 2.1 2.3 0.9 1.3 1.9 2.8
5.2 5.3 4.8 6.3 8.9 8.4 8.6 7.1 4.9 4.9 4.5 5.6 5.7 4.9 5.6 7.4 7.4 7.0 7.8 11.2 13.1 9.8 4.5 5.5 7.0 7.2 5.3 7.7 9.3 4.7 8.2 7.3 3.9 4.7 2.8 4.3 5.4 6.1 2.7 3.2 4.5 7.5 3.6
4.0 3.3 3.7 3.4 2.7 2.2 2.1 6.3 8.2 8.0 6.9 6.1 5.3 6.1 6.1 7.0 8.4 8.6 9.8 9.7 11.1 14.3 16.6 15.3 13.7 13.5 12.6 12.6 10.5 10.1 9.9 8.5 7.7 7.0 6.5 6.6 5.7 4.9 7.0 6.0 6.2 7.2 6.3
2.4 1.2 1.0 0.5 0.2 0.4 0.2 0.9 2.7 4.3 5.0 5.3 6.2 5.9 5.6 5.6 5.2 5.4 6.6 7.6 8.1 7.9 8.1 8.9 10.9 12.4 13.3 14.1 13.8 14.8 14.0 12.5 11.6 12.1 11.8 11.2 7.9 6.4 7.3 7.9 9.5 10.8 7.1
1.7 0.6 0.1 0.0 0.3 0.5 0.6 0.1 0.0 0.1 0.6 0.9 1.1 2.0 2.5 2.7 2.8 3.0 3.2 3.5 4.5 5.4 6.3 6.4 6.3 6.4 6.1 7.4 7.9 8.3 8.1 7.9 10.3 10.6 11.9 10.9 13.7 15.8 13.2 19.0 18.1 14.1 18.1
3.2 1.2 0.6 0.5 0.9 0.4 0.3 0.5 0.5 0.1 0.1 0.1 0.5 0.7 0.9 1.2 1.4 1.9 1.8 1.8 3.1 2.5 2.4 3.9 3.4 3.7 5.7 7.6 6.5 6.5 8.2 8.4 9.2 13.8 19.8 19.8 20.0 19.5 19.6 19.2 19.0 18.6 17.5
2.3 1.5 1.5 1.0 1.3 0.1 0.4 0.4 0.2 0.0 0.0 0.0 0.6 0.2 0.8 0.4 0.7 0.8 1.4 2.0 1.8 1.8 1.2 1.3 4.9 5.6 10.2 13.9 13.4 13.3 13.3 13.9 13.3 12.8 12.9 12.8 11.8 11.5 11.5 10.3 10.3 9.4 8.9

GFSMW_prec_snow_132.txt.gz
Snowfall_Accumulation
0.0 0.0 0.0 0.0 0.0 0.0 0.0 0.0 0.0 0.0 0.0 0.0 0.0 0.0 0.0 0.0 0.0 0.0 0.0 0.0 0.0 0.0 0.0 0.0 0.0 0.0 0.0 0.0 0.0 0.0 0.0 0.0 0.0 0.0 0.0 0.0 0.0 0.0 0.0 0.0 0.0 0.0 0.0
0.0 0.0 0.0 0.0 0.0 0.0 0.0 0.0 0.0 0.0 0.0 0.0 0.0 0.0 0.0 0.0 0.0 0.0 0.0 0.0 0.0 0.0 0.0 0.0 0.0 0.0 0.0 0.0 0.0 0.0 0.0 0.0 0.0 0.0 0.0 0.0 0.0 0.0 0.0 0.0 0.0 0.0 0.0
0.0 0.0 0.0 0.0 0.0 0.0 0.0 0.0 0.0 0.0 0.0 0.0 0.0 0.0 0.0 0.0 0.0 0.0 0.0 0.0 0.0 0.0 0.0 0.0 0.0 0.0 0.0 0.0 0.0 0.0 0.0 0.0 0.0 0.0 0.0 0.0 0.0 0.0 0.0 0.0 0.0 0.0 0.0
0.0 0.0 0.0 0.0 0.0 0.0 0.0 0.0 0.0 0.0 0.0 0.0 0.0 0.0 0.0 0.0 0.0 0.0 0.0 0.0 0.0 0.0 0.0 0.0 0.0 0.0 0.0 0.0 0.0 0.0 0.0 0.0 0.0 0.0 0.0 0.0 0.0 0.0 0.0 0.0 0.0 0.0 0.0
0.0 0.0 0.0 0.0 0.0 0.0 0.0 0.0 0.0 0.0 0.0 0.0 0.0 0.0 0.0 0.0 0.0 0.0 0.0 0.0 0.0 0.0 0.0 0.0 0.0 0.0 0.0 0.0 0.0 0.0 0.0 0.0 0.0 0.0 0.0 0.0 0.0 0.0 0.0 0.0 0.0 0.0 0.0
0.0 0.0 0.0 0.0 0.0 0.0 0.0 0.0 0.0 0.0 0.0 0.0 0.0 0.0 0.0 0.0 0.0 0.0 0.0 0.0 0.0 0.0 0.0 0.0 0.0 0.0 0.0 0.0 0.0 0.0 0.0 0.0 0.0 0.0 0.0 0.0 0.0 0.0 0.0 0.0 0.0 0.0 0.0
0.0 0.0 0.0 0.0 0.0 0.0 0.0 0.0 0.0 0.0 0.0 0.0 0.0 0.0 0.0 0.0 0.0 0.0 0.0 0.0 0.0 0.0 0.0 0.0 0.0 0.0 0.0 0.0 0.0 0.0 0.0 0.0 0.0 0.0 0.0 0.0 0.0 0.0 0.0 0.0 0.0 0.0 0.0
3.1 1.7 0.5 0.0 0.0 0.0 0.0 0.0 0.0 0.0 0.0 0.0 0.0 0.0 0.0 0.0 0.0 0.0 0.0 0.0 0.0 0.0 0.0 0.0 0.0 0.0 0.0 0.0 0.0 0.0 0.0 0.0 0.0 0.0 0.0 0.0 0.0 0.0 0.0 0.0 0.0 0.0 0.0
0.0 3.1 1.6 1.6 0.9 0.0 0.0 0.0 0.0 0.0 0.0 0.0 0.0 0.0 0.0 0.0 0.0 0.0 0.0 0.0 0.0 0.0 0.0 0.0 0.0 0.0 0.0 0.0 0.0 0.0 0.0 0.0 0.0 0.0 0.0 0.0 0.0 0.0 0.0 0.0 0.0 0.0 0.0
3.1 0.0 1.6 0.8 0.0 0.0 0.0 0.0 0.0 0.0 0.0 0.0 0.0 0.0 0.0 0.0 0.0 0.0 0.0 0.0 0.0 0.0 0.0 0.0 0.0 0.0 0.0 0.0 0.0 0.0 0.0 0.0 0.0 0.0 0.0 0.0 0.0 0.0 0.0 0.0 0.0 0.0 0.0
1.0 1.0 0.9 0.6 0.0 0.0 0.0 0.2 0.2 0.0 0.1 0.0 0.0 0.0 0.0 0.0 0.0 0.0 0.0 0.0 0.0 0.0 0.0 0.0 0.0 0.0 0.0 0.0 0.0 0.0 0.0 0.0 0.0 0.0 0.0 0.0 0.0 0.0 0.0 0.0 0.0 0.0 0.0
0.0 0.3 0.2 0.1 0.0 0.0 0.0 0.0 0.0 0.0 0.0 0.0 0.0 0.0 0.0 0.0 0.0 0.0 0.0 0.0 0.0 0.0 0.0 0.0 0.0 0.0 0.0 0.0 0.0 0.0 0.0 0.0 0.0 0.0 0.0 0.0 0.2 0.2 0.0 0.0 0.0 0.0 0.0
0.0 0.0 0.0 0.0 0.0 0.0 0.0 0.0 0.0 0.0 0.0 0.0 0.0 0.0 0.0 0.0 0.0 0.0 0.0 0.0 0.0 0.0 0.0 0.0 0.0 0.0 0.0 0.0 0.0 0.0 0.0 0.0 0.0 0.0 0.0 0.0 0.0 0.0 0.1 0.1 0.1 0.0 0.0
0.0 0.0 0.0 0.0 0.0 0.0 0.0 0.0 0.0 0.0 0.0 0.0 0.0 0.0 0.0 0.0 0.0 0.0 0.0 0.0 0.0 0.0 0.0 0.0 0.0 0.0 0.0 0.0 0.0 0.0 0.0 0.0 0.0 0.0 0.0 0.0 0.0 0.0 0.0 0.1 0.1 0.1 0.1
0.0 0.0 0.0 0.0 0.0 0.0 0.0 0.0 0.0 0.0 0.0 0.0 0.0 0.0 0.0 0.0 0.0 0.0 0.0 0.0 0.0 0.0 0.0 0.0 0.0 0.0 0.0 0.0 0.0 0.0 0.0 0.0 0.0 0.0 0.0 0.0 0.1 0.0 0.0 0.1 0.1 0.0 0.1
0.1 0.0 0.0 0.0 0.0 0.0 0.1 0.1 0.1 0.2 0.0 0.2 0.0 0.0 0.0 0.0 0.0 0.0 0.0 0.0 0.0 0.0 0.0 0.0 0.0 0.0 0.0 0.0 0.0 0.0 0.0 0.0 0.0 0.0 0.0 0.0 0.0 0.0 0.0 0.0 0.0 0.1 0.2
0.2 0.0 0.5 0.1 0.3 0.4 0.6 0.7 0.7 0.4 0.1 0.4 0.2 0.4 1.4 0.0 0.9 0.9 0.0 0.1 0.2 0.0 0.0 0.1 0.1 0.0 0.3 0.0 0.0 0.0 0.0 0.0 0.0 0.0 0.0 0.0 0.0 0.0 0.0 0.0 0.0 0.0 0.1
2.9 2.3 2.2 2.1 1.8 1.0 1.1 0.8 1.0 0.7 0.4 0.7 0.6 1.0 1.1 1.9 2.6 2.6 1.5 1.3 0.6 0.6 0.8 1.3 0.4 0.2 1.1 0.6 0.7 0.8 0.8 0.8 0.0 0.9 1.0 1.0 0.2 0.0 0.0 0.1 0.1 0.2 0.2
5.1 7.8 2.8 2.8 3.3 2.7 2.9 2.9 1.6 1.5 0.6 1.6 1.6 2.1 2.4 1.6 1.5 1.2 1.0 0.9 1.1 0.8 1.8 0.9 0.8 1.0 1.5 2.1 2.4 2.8 1.2 0.8 0.9 1.4 0.9 0.9 1.5 3.1 4.3 0.8 0.9 1.2 1.7
5.6 5.3 8.6 8.1 6.4 6.7 4.7 4.0 2.6 3.2 4.1 4.9 6.3 2.3 1.5 1.8 3.5 2.7 4.1 5.4 2.5 2.9 3.3 6.0 2.9 4.7 1.6 2.7 4.6 2.3 3.1 1.3 5.7 2.7 2.8 3.9 1.7 2.1 2.3 0.9 1.3 1.9 2.8
5.2 5.3 4.8 6.3 9.1 8.4 8.6 7.1 4.9 4.9 4.5 5.6 5.7 4.9 5.6 7.4 7.4 7.0 7.8 11.2 13.1 9.8 4.5 5.5 7.0 7.2 5.3 7.7 9.3 4.7 8.2 7.3 3.9 4.7 2.8 4.3 5.4 6.1 2.7 3.2 4.5 7.5 3.6
4.0 3.3 3.7 3.6 2.8 2.2 2.1 6.3 8.2 8.0 6.9 6.1 5.3 6.1 6.1 7.0 8.4 8.6 9.8 9.7 11.2 14.3 16.6 15.3 13.7 13.5 12.6 12.6 10.5 10.1 9.9 8.5 7.7 7.0 6.5 6.6 5.7 4.9 7.0 6.0 6.2 7.2 6.3
2.5 1.3 1.2 0.6 0.2 0.4 0.2 0.9 2.7 4.3 5.0 5.3 6.2 5.9 5.6 5.6 5.2 5.4 6.6 7.6 8.1 7.9 8.1 8.9 10.9 12.4 13.3 14.1 13.8 14.8 14.0 12.5 11.6 12.1 11.8 11.2 7.9 6.4 7.3 7.9 9.5 10.8 7.1
1.7 0.6 0.1 0.0 0.3 0.5 0.6 0.1 0.0 0.1 0.6 0.9 1.1 2.0 2.5 2.7 2.8 3.0 3.2 3.5 4.5 5.4 6.3 6.4 6.3 6.4 6.1 7.4 7.9 8.3 8.1 7.9 10.3 10.6 11.9 10.9 13.7 15.8 13.2 19.0 18.1 14.1 18.1
3.2 1.2 0.6 0.5 0.9 0.4 0.3 0.5 0.5 0.1 0.1 0.1 0.5 0.7 0.9 1.2 1.4 1.9 1.8 1.8 3.1 2.5 2.4 3.9 3.4 3.7 5.7 7.6 6.5 6.5 8.2 8.4 9.2 13.8 19.8 19.8 20.0 19.5 19.6 19.2 19.0 18.6 17.5
2.3 1.5 1.5 1.0 1.3 0.1 0.4 0.4 0.2 0.0 0.0 0.0 0.6 0.2 0.8 0.4 0.7 0.8 1.4 2.0 1.8 1.8 1.2 1.3 4.9 5.6 10.2 13.9 13.4 13.3 13.3 13.9 13.3 12.8 12.9 12.8 11.8 11.5 11.5 10.3 10.3 9.4 8.9

GFSMW_prec_snow_138.txt.gz
Snowfall_Accumulation
0.0 0.0 0.0 0.0 0.0 0.0 0.0 0.0 0.0 0.0 0.0 0.0 0.0 0.0 0.0 0.0 0.0 0.0 0.0 0.0 0.0 0.0 0.0 0.0 0.0 0.0 0.0 0.0 0.0 0.0 0.0 0.0 0.0 0.0 0.0 0.0 0.0 0.0 0.0 0.0 0.0 0.0 0.0
0.0 0.0 0.0 0.0 0.0 0.0 0.0 0.0 0.0 0.0 0.0 0.0 0.0 0.0 0.0 0.0 0.0 0.0 0.0 0.0 0.0 0.0 0.0 0.0 0.0 0.0 0.0 0.0 0.0 0.0 0.0 0.0 0.0 0.0 0.0 0.0 0.0 0.0 0.0 0.0 0.0 0.0 0.0
0.0 0.0 0.0 0.0 0.0 0.0 0.0 0.0 0.0 0.0 0.0 0.0 0.0 0.0 0.0 0.0 0.0 0.0 0.0 0.0 0.0 0.0 0.0 0.0 0.0 0.0 0.0 0.0 0.0 0.0 0.0 0.0 0.0 0.0 0.0 0.0 0.0 0.0 0.0 0.0 0.0 0.0 0.0
0.0 0.0 0.0 0.0 0.0 0.0 0.0 0.0 0.0 0.0 0.0 0.0 0.0 0.0 0.0 0.0 0.0 0.0 0.0 0.0 0.0 0.0 0.0 0.0 0.0 0.0 0.0 0.0 0.0 0.0 0.0 0.0 0.0 0.0 0.0 0.0 0.0 0.0 0.0 0.0 0.0 0.0 0.0
0.0 0.0 0.0 0.0 0.0 0.0 0.0 0.0 0.0 0.0 0.0 0.0 0.0 0.0 0.0 0.0 0.0 0.0 0.0 0.0 0.0 0.0 0.0 0.0 0.0 0.0 0.0 0.0 0.0 0.0 0.0 0.0 0.0 0.0 0.0 0.0 0.0 0.0 0.0 0.0 0.0 0.0 0.0
0.0 0.0 0.0 0.0 0.0 0.0 0.0 0.0 0.0 0.0 0.0 0.0 0.0 0.0 0.0 0.0 0.0 0.0 0.0 0.0 0.0 0.0 0.0 0.0 0.0 0.0 0.0 0.0 0.0 0.0 0.0 0.0 0.0 0.0 0.0 0.0 0.0 0.0 0.0 0.0 0.0 0.0 0.0
0.0 0.0 0.0 0.0 0.0 0.0 0.0 0.0 0.0 0.0 0.0 0.0 0.0 0.0 0.0 0.0 0.0 0.0 0.0 0.0 0.0 0.0 0.0 0.0 0.0 0.0 0.0 0.0 0.0 0.0 0.0 0.0 0.0 0.0 0.0 0.0 0.0 0.0 0.0 0.0 0.0 0.0 0.0
3.1 1.7 0.5 0.0 0.0 0.0 0.0 0.0 0.0 0.0 0.0 0.0 0.0 0.0 0.0 0.0 0.0 0.0 0.0 0.0 0.0 0.0 0.0 0.0 0.0 0.0 0.0 0.0 0.0 0.0 0.0 0.0 0.0 0.0 0.0 0.0 0.0 0.0 0.0 0.0 0.0 0.0 0.0
0.0 3.1 1.6 1.6 0.9 0.0 0.0 0.0 0.0 0.0 0.0 0.0 0.0 0.0 0.0 0.0 0.0 0.0 0.0 0.0 0.0 0.0 0.0 0.0 0.0 0.0 0.0 0.0 0.0 0.0 0.0 0.0 0.0 0.0 0.0 0.0 0.0 0.0 0.0 0.0 0.0 0.0 0.0
3.1 0.0 1.6 0.8 0.0 0.0 0.0 0.0 0.0 0.0 0.0 0.0 0.0 0.0 0.0 0.0 0.0 0.0 0.0 0.0 0.0 0.0 0.0 0.0 0.0 0.0 0.0 0.0 0.0 0.0 0.0 0.1 0.1 0.1 0.1 0.0 0.0 0.0 0.0 0.0 0.0 0.0 0.0
1.0 1.0 0.9 0.6 0.0 0.0 0.0 0.2 0.2 0.0 0.1 0.0 0.0 0.0 0.0 0.0 0.0 0.0 0.0 0.0 0.0 0.0 0.0 0.0 0.0 0.0 0.0 0.0 0.0 0.0 0.0 0.0 0.4 0.1 0.2 0.1 0.0 0.1 0.0 0.0 0.0 0.0 0.0
0.0 0.3 0.2 0.1 0.0 0.0 0.0 0.0 0.0 0.0 0.0 0.0 0.0 0.0 0.0 0.0 0.0 0.0 0.0 0.0 0.0 0.0 0.0 0.0 0.0 0.0 0.0 0.0 0.0 0.0 0.0 0.0 0.0 0.0 0.0 0.0 0.2 0.2 0.0 0.1 0.1 0.2 0.0
0.0 0.0 0.0 0.0 0.0 0.0 0.0 0.0 0.0 0.0 0.0 0.0 0.0 0.0 0.0 0.0 0.0 0.0 0.0 0.0 0.0 0.0 0.0 0.0 0.0 0.0 0.0 0.0 0.0 0.0 0.0 0.0 0.0 0.0 0.0 0.0 0.0 0.0 0.1 0.1 0.1 0.0 0.1
0.0 0.0 0.0 0.0 0.0 0.0 0.0 0.0 0.0 0.0 0.0 0.0 0.0 0.0 0.0 0.0 0.0 0.0 0.0 0.0 0.0 0.0 0.0 0.0 0.0 0.0 0.0 0.0 0.0 0.0 0.0 0.0 0.0 0.0 0.0 0.0 0.0 0.0 0.0 0.1 0.1 0.1 0.1
0.0 0.0 0.0 0.0 0.0 0.0 0.0 0.0 0.0 0.0 0.0 0.0 0.0 0.0 0.0 0.0 0.0 0.0 0.0 0.0 0.0 0.0 0.0 0.0 0.0 0.0 0.0 0.0 0.0 0.0 0.0 0.0 0.0 0.0 0.0 0.0 0.1 0.0 0.0 0.1 0.3 0.1 0.1
0.1 0.0 0.0 0.0 0.0 0.0 0.1 0.1 0.1 0.2 0.0 0.2 0.0 0.0 0.0 0.0 0.0 0.0 0.0 0.0 0.0 0.0 0.0 0.0 0.0 0.0 0.0 0.1 0.0 0.0 0.0 0.0 0.0 0.0 0.0 0.0 0.0 0.0 0.0 0.0 0.1 0.3 0.4
0.2 0.0 0.5 0.1 0.3 0.4 0.6 0.7 0.7 0.4 0.1 0.4 0.2 0.4 1.4 0.0 0.9 0.9 0.0 0.1 0.2 0.0 0.0 0.1 0.1 0.0 0.3 0.0 0.0 0.0 0.0 0.0 0.0 0.0 0.0 0.0 0.0 0.0 0.0 0.0 0.0 0.0 0.1
2.9 2.3 2.2 2.1 1.8 1.0 1.1 0.8 1.0 0.7 0.4 0.7 0.6 1.0 1.1 1.9 2.6 2.6 1.5 1.3 0.6 0.6 0.8 1.3 0.4 0.2 1.1 0.6 0.7 0.8 0.8 0.8 0.0 0.9 1.0 1.0 0.2 0.0 0.0 0.1 0.1 0.2 0.2
5.1 7.8 2.8 2.8 3.3 2.7 2.9 2.9 1.6 1.5 0.6 1.6 1.6 2.1 2.4 1.6 1.5 1.2 1.0 0.9 1.1 0.8 1.8 0.9 0.8 1.0 1.5 2.1 2.4 2.8 1.2 0.8 0.9 1.4 0.9 0.9 1.5 3.1 4.3 0.8 0.9 1.2 1.7
5.6 5.3 8.6 8.1 6.4 6.7 4.7 4.0 2.6 3.2 4.1 4.9 6.3 2.3 1.5 1.8 3.5 2.7 4.1 5.4 2.5 2.9 3.3 6.0 2.9 4.7 1.6 2.7 4.6 2.3 3.1 1.3 5.7 2.7 2.8 3.9 1.7 2.1 2.3 0.9 1.3 1.9 2.8
5.2 5.3 4.8 6.3 9.1 8.4 8.6 7.1 4.9 4.9 4.5 5.6 5.7 4.9 5.6 7.4 7.4 7.0 7.8 11.3 13.1 9.8 4.5 5.5 7.0 7.2 5.3 7.7 9.3 4.7 8.2 7.3 3.9 4.7 2.8 4.3 5.4 6.1 2.7 3.2 4.5 7.5 3.6
4.0 3.3 3.7 3.6 2.8 2.2 2.1 6.3 8.2 8.0 6.9 6.1 5.3 6.1 6.1 7.0 8.4 8.6 9.8 9.7 11.2 14.3 16.6 15.3 13.7 13.5 12.6 12.6 10.5 10.1 9.9 8.5 7.7 7.0 6.5 6.6 5.7 4.9 7.0 6.0 6.2 7.2 6.3
2.5 1.3 1.2 0.6 0.4 0.4 0.2 0.9 2.7 4.3 5.0 5.3 6.2 5.9 5.6 5.6 5.2 5.4 6.6 7.6 8.1 7.9 8.1 8.9 10.9 12.4 13.3 14.1 13.8 14.8 14.0 12.5 11.6 12.1 11.8 11.2 7.9 6.4 7.3 7.9 9.5 10.8 7.1
1.7 0.6 0.1 0.0 0.3 0.5 0.6 0.1 0.0 0.1 0.6 0.9 1.1 2.0 2.5 2.7 2.8 3.0 3.2 3.5 4.5 5.4 6.3 6.4 6.3 6.4 6.1 7.4 7.9 8.3 8.1 7.9 10.3 10.6 11.9 10.9 13.7 15.8 13.2 19.0 18.1 14.1 18.1
3.2 1.2 0.6 0.5 0.9 0.5 0.3 0.5 0.5 0.1 0.1 0.1 0.5 0.7 0.9 1.2 1.4 1.9 1.8 1.8 3.1 2.5 2.4 3.9 3.4 3.7 5.7 7.6 6.5 6.5 8.2 8.4 9.2 13.8 19.8 19.8 20.0 19.5 19.6 19.2 19.0 18.6 17.5
2.3 1.5 1.5 1.0 1.3 0.1 0.4 0.4 0.2 0.0 0.0 0.0 0.6 0.2 0.8 0.4 0.7 0.8 1.4 2.0 1.8 1.8 1.2 1.3 4.9 5.6 10.2 13.9 13.4 13.3 13.3 13.9 13.3 12.8 12.9 12.8 11.8 11.5 11.5 10.3 10.3 9.4 8.9

GFSMW_prec_snow_141.txt.gz
Snowfall_Accumulation
0.0 0.0 0.0 0.0 0.0 0.0 0.0 0.0 0.0 0.0 0.0 0.0 0.0 0.0 0.0 0.0 0.0 0.0 0.0 0.0 0.0 0.0 0.0 0.0 0.0 0.0 0.0 0.0 0.0 0.0 0.0 0.0 0.0 0.0 0.0 0.0 0.0 0.0 0.0 0.0 0.0 0.0 0.0
0.0 0.0 0.0 0.0 0.0 0.0 0.0 0.0 0.0 0.0 0.0 0.0 0.0 0.0 0.0 0.0 0.0 0.0 0.0 0.0 0.0 0.0 0.0 0.0 0.0 0.0 0.0 0.0 0.0 0.0 0.0 0.0 0.0 0.0 0.0 0.0 0.0 0.0 0.0 0.0 0.0 0.0 0.0
0.0 0.0 0.0 0.0 0.0 0.0 0.0 0.0 0.0 0.0 0.0 0.0 0.0 0.0 0.0 0.0 0.0 0.0 0.0 0.0 0.0 0.0 0.0 0.0 0.0 0.0 0.0 0.0 0.0 0.0 0.0 0.0 0.0 0.0 0.0 0.0 0.0 0.0 0.0 0.0 0.0 0.0 0.0
0.0 0.0 0.0 0.0 0.0 0.0 0.0 0.0 0.0 0.0 0.0 0.0 0.0 0.0 0.0 0.0 0.0 0.0 0.0 0.0 0.0 0.0 0.0 0.0 0.0 0.0 0.0 0.0 0.0 0.0 0.0 0.0 0.0 0.0 0.0 0.0 0.0 0.0 0.0 0.0 0.0 0.0 0.0
0.0 0.0 0.0 0.0 0.0 0.0 0.0 0.0 0.0 0.0 0.0 0.0 0.0 0.0 0.0 0.0 0.0 0.0 0.0 0.0 0.0 0.0 0.0 0.0 0.0 0.0 0.0 0.0 0.0 0.0 0.0 0.0 0.0 0.0 0.0 0.0 0.0 0.0 0.0 0.0 0.0 0.0 0.0
0.0 0.0 0.0 0.0 0.0 0.0 0.0 0.0 0.0 0.0 0.0 0.0 0.0 0.0 0.0 0.0 0.0 0.0 0.0 0.0 0.0 0.0 0.0 0.0 0.0 0.0 0.0 0.0 0.0 0.0 0.0 0.0 0.0 0.0 0.0 0.0 0.0 0.0 0.0 0.0 0.0 0.0 0.0
0.0 0.0 0.0 0.0 0.0 0.0 0.0 0.0 0.0 0.0 0.0 0.0 0.0 0.0 0.0 0.0 0.0 0.0 0.0 0.0 0.0 0.0 0.0 0.0 0.0 0.0 0.0 0.0 0.0 0.0 0.0 0.0 0.0 0.0 0.0 0.0 0.0 0.0 0.0 0.0 0.0 0.0 0.0
3.1 1.7 0.5 0.0 0.0 0.0 0.0 0.0 0.0 0.0 0.0 0.0 0.0 0.0 0.0 0.0 0.0 0.0 0.0 0.0 0.0 0.0 0.0 0.0 0.0 0.0 0.0 0.0 0.0 0.0 0.0 0.0 0.0 0.0 0.0 0.0 0.0 0.0 0.0 0.0 0.0 0.0 0.0
0.0 3.1 1.6 1.6 0.9 0.0 0.0 0.0 0.0 0.0 0.0 0.0 0.0 0.0 0.0 0.0 0.0 0.0 0.0 0.0 0.0 0.0 0.0 0.0 0.0 0.0 0.0 0.0 0.0 0.0 0.0 0.0 0.0 0.0 0.0 0.0 0.0 0.1 0.0 0.1 0.1 0.0 0.0
3.1 0.0 1.6 0.8 0.0 0.0 0.0 0.0 0.0 0.0 0.0 0.0 0.0 0.0 0.0 0.0 0.0 0.0 0.0 0.0 0.0 0.0 0.0 0.0 0.0 0.0 0.0 0.0 0.0 0.0 0.0 0.1 0.1 0.1 0.1 0.0 0.0 0.2 0.2 0.1 0.1 0.1 0.1
1.0 1.0 0.9 0.6 0.0 0.0 0.0 0.2 0.2 0.0 0.1 0.0 0.0 0.0 0.0 0.0 0.0 0.0 0.0 0.0 0.0 0.0 0.0 0.0 0.0 0.0 0.0 0.0 0.0 0.0 0.0 0.0 0.4 0.1 0.2 0.1 0.5 0.6 0.5 0.2 0.1 0.2 0.1
0.0 0.3 0.2 0.1 0.0 0.0 0.0 0.0 0.0 0.0 0.0 0.0 0.0 0.0 0.0 0.0 0.0 0.0 0.0 0.0 0.0 0.0 0.0 0.0 0.0 0.0 0.0 0.0 0.0 0.0 0.0 0.0 0.0 0.0 0.0 0.0 0.2 0.2 0.4 0.5 0.4 0.3 0.1
0.0 0.0 0.0 0.0 0.0 0.0 0.0 0.0 0.0 0.0 0.0 0.0 0.0 0.0 0.0 0.0 0.0 0.0 0.0 0.0 0.0 0.0 0.0 0.0 0.0 0.0 0.0 0.0 0.0 0.0 0.0 0.0 0.0 0.0 0.0 0.0 0.0 0.0 0.1 0.1 0.1 0.0 0.1
0.0 0.0 0.0 0.0 0.0 0.0 0.0 0.0 0.0 0.0 0.0 0.0 0.0 0.0 0.0 0.0 0.0 0.0 0.0 0.0 0.0 0.0 0.0 0.0 0.0 0.0 0.0 0.0 0.0 0.0 0.0 0.0 0.0 0.0 0.0 0.0 0.0 0.0 0.0 0.1 0.1 0.1 0.1
0.0 0.0 0.0 0.0 0.0 0.0 0.0 0.0 0.0 0.0 0.0 0.0 0.0 0.0 0.0 0.0 0.0 0.0 0.0 0.0 0.0 0.0 0.0 0.0 0.0 0.0 0.0 0.0 0.0 0.0 0.0 0.0 0.0 0.0 0.0 0.0 0.1 0.0 0.0 0.2 0.3 0.1 0.1
0.1 0.0 0.0 0.0 0.0 0.0 0.1 0.1 0.1 0.2 0.0 0.2 0.0 0.0 0.0 0.0 0.0 0.0 0.0 0.0 0.0 0.0 0.0 0.0 0.0 0.0 0.0 0.1 0.0 0.0 0.0 0.0 0.0 0.0 0.0 0.0 0.0 0.0 0.0 0.0 0.1 0.3 0.4
0.2 0.0 0.5 0.1 0.3 0.4 0.6 0.7 0.7 0.4 0.1 0.4 0.2 0.4 1.4 0.0 0.9 0.9 0.0 0.1 0.2 0.0 0.0 0.1 0.1 0.0 0.3 0.0 0.0 0.0 0.0 0.0 0.0 0.0 0.0 0.0 0.0 0.0 0.0 0.0 0.0 0.0 0.1
2.9 2.3 2.2 2.1 1.8 1.0 1.1 0.8 1.6 0.9 0.4 0.7 0.6 1.0 1.1 1.9 2.6 2.6 1.5 1.3 0.6 0.6 0.8 1.3 0.4 0.2 1.1 0.6 0.7 0.8 0.8 0.8 0.0 0.9 1.0 1.0 0.2 0.0 0.0 0.1 0.1 0.2 0.2
5.1 7.8 2.8 2.8 3.3 2.7 2.9 3.3 1.7 1.6 0.6 1.6 1.6 2.1 2.4 1.6 1.5 1.2 1.0 0.9 1.1 0.8 1.8 0.9 0.8 1.0 1.5 2.1 2.4 2.8 1.2 0.8 0.9 1.4 0.9 0.9 1.5 3.1 4.3 0.8 0.9 1.2 1.7
5.6 5.3 8.6 8.1 6.4 6.7 4.7 4.0 2.6 3.3 4.1 4.9 6.3 2.3 1.5 1.8 3.5 2.7 4.1 5.4 2.5 2.9 3.3 6.0 2.9 4.7 1.6 2.7 4.6 2.3 3.1 1.3 5.7 2.7 2.8 3.9 1.7 2.1 2.3 0.9 1.3 1.9 2.8
5.2 5.3 4.8 6.3 9.1 8.4 8.6 7.1 4.9 4.9 4.5 5.6 5.7 4.9 5.6 7.4 7.4 7.0 7.8 11.3 13.1 9.8 4.5 5.5 7.0 7.2 5.3 7.7 9.3 4.7 8.2 7.3 3.9 4.7 2.8 4.3 5.4 6.1 2.7 3.2 4.5 7.5 3.6
4.0 3.3 3.7 3.6 2.8 2.2 2.1 6.3 8.2 8.0 6.9 6.1 5.3 6.1 6.1 7.0 8.4 8.6 9.8 9.7 11.2 14.3 16.6 15.3 13.7 13.5 12.6 12.6 10.5 10.1 9.9 8.5 7.7 7.0 6.5 6.6 5.7 4.9 7.0 6.0 6.2 7.2 6.3
2.5 1.3 1.2 0.6 0.4 0.4 0.2 0.9 2.7 4.3 5.0 5.3 6.2 5.9 5.6 5.6 5.2 5.5 6.7 7.6 8.1 7.9 8.1 8.9 10.9 12.4 13.3 14.1 13.8 14.8 14.0 12.5 11.6 12.1 11.8 11.2 7.9 6.4 7.3 7.9 9.5 10.8 7.1
1.7 0.6 0.1 0.0 0.3 0.5 0.6 0.1 0.1 0.1 0.6 0.9 1.1 2.0 2.5 2.7 2.8 3.0 3.2 3.5 4.5 5.4 6.3 6.4 6.3 6.4 6.1 7.4 7.9 8.3 8.1 7.9 10.3 10.6 11.9 10.9 13.7 15.8 13.2 19.0 18.1 14.1 18.1
3.2 1.2 0.6 0.5 0.9 0.5 0.3 0.6 0.5 0.1 0.1 0.1 0.5 0.7 0.9 1.2 1.4 1.9 1.8 1.8 3.1 2.5 2.4 3.9 3.4 3.7 5.7 7.6 6.5 6.5 8.2 8.4 9.2 13.8 19.8 19.8 20.0 19.5 19.6 19.2 19.0 18.6 17.5
2.3 1.5 1.5 1.0 1.3 0.1 0.6 0.5 0.3 0.0 0.0 0.0 0.6 0.2 0.8 0.4 0.7 0.8 1.4 2.0 1.8 1.8 1.2 1.3 4.9 5.6 10.2 13.9 13.4 13.3 13.3 13.9 13.3 12.8 12.9 12.8 11.8 11.5 11.5 10.3 10.3 9.4 8.9

GFSMW_prec_snow_147.txt.gz
Snowfall_Accumulation
0.0 0.0 0.0 0.0 0.0 0.0 0.0 0.0 0.0 0.0 0.0 0.0 0.0 0.0 0.0 0.0 0.0 0.0 0.0 0.0 0.0 0.0 0.0 0.0 0.0 0.0 0.0 0.0 0.0 0.0 0.0 0.0 0.0 0.0 0.0 0.0 0.0 0.0 0.0 0.0 0.0 0.0 0.0
0.0 0.0 0.0 0.0 0.0 0.0 0.0 0.0 0.0 0.0 0.0 0.0 0.0 0.0 0.0 0.0 0.0 0.0 0.0 0.0 0.0 0.0 0.0 0.0 0.0 0.0 0.0 0.0 0.0 0.0 0.0 0.0 0.0 0.0 0.0 0.0 0.0 0.0 0.0 0.0 0.0 0.0 0.0
0.0 0.0 0.0 0.0 0.0 0.0 0.0 0.0 0.0 0.0 0.0 0.0 0.0 0.0 0.0 0.0 0.0 0.0 0.0 0.0 0.0 0.0 0.0 0.0 0.0 0.0 0.0 0.0 0.0 0.0 0.0 0.0 0.0 0.0 0.0 0.0 0.0 0.0 0.0 0.0 0.0 0.0 0.0
0.0 0.0 0.0 0.0 0.0 0.0 0.0 0.0 0.0 0.0 0.0 0.0 0.0 0.0 0.0 0.0 0.0 0.0 0.0 0.0 0.0 0.0 0.0 0.0 0.0 0.0 0.0 0.0 0.0 0.0 0.0 0.0 0.0 0.0 0.0 0.0 0.0 0.0 0.0 0.0 0.0 0.0 0.0
0.0 0.0 0.0 0.0 0.0 0.0 0.0 0.0 0.0 0.0 0.0 0.0 0.0 0.0 0.0 0.0 0.0 0.0 0.0 0.0 0.0 0.0 0.0 0.0 0.0 0.0 0.0 0.0 0.0 0.0 0.0 0.0 0.0 0.0 0.0 0.0 0.0 0.0 0.0 0.0 0.0 0.0 0.0
0.0 0.0 0.0 0.0 0.0 0.0 0.0 0.0 0.0 0.0 0.0 0.0 0.0 0.0 0.0 0.0 0.0 0.0 0.0 0.0 0.0 0.0 0.0 0.0 0.0 0.0 0.0 0.0 0.0 0.0 0.0 0.0 0.0 0.0 0.0 0.0 0.0 0.0 0.0 0.0 0.0 0.0 0.0
0.0 0.0 0.0 0.0 0.0 0.0 0.0 0.0 0.0 0.0 0.0 0.0 0.0 0.0 0.0 0.0 0.0 0.0 0.0 0.0 0.0 0.0 0.0 0.0 0.0 0.0 0.0 0.0 0.0 0.0 0.0 0.0 0.0 0.0 0.0 0.0 0.0 0.0 0.0 0.0 0.0 0.0 0.0
3.1 1.7 0.5 0.0 0.0 0.0 0.0 0.0 0.0 0.0 0.0 0.0 0.0 0.0 0.0 0.0 0.0 0.0 0.0 0.0 0.0 0.0 0.0 0.0 0.0 0.0 0.0 0.0 0.0 0.0 0.0 0.0 0.0 0.0 0.0 0.0 0.0 0.0 0.1 0.1 0.1 0.0 0.0
0.0 3.1 1.6 1.6 0.9 0.0 0.0 0.0 0.0 0.0 0.0 0.0 0.0 0.0 0.0 0.0 0.0 0.0 0.0 0.0 0.0 0.0 0.0 0.0 0.0 0.0 0.0 0.0 0.0 0.0 0.0 0.0 0.0 0.0 0.0 0.0 0.0 0.2 0.0 0.2 0.3 0.4 0.3
3.1 0.0 1.6 0.8 0.0 0.0 0.0 0.0 0.0 0.0 0.0 0.0 0.0 0.0 0.0 0.0 0.0 0.0 0.0 0.0 0.0 0.0 0.0 0.0 0.0 0.0 0.0 0.0 0.0 0.0 0.0 0.1 0.1 0.1 0.1 0.0 0.0 0.2 0.2 0.3 0.5 0.6 0.6
1.0 1.0 0.9 0.6 0.0 0.0 0.0 0.2 0.2 0.0 0.1 0.0 0.0 0.0 0.0 0.0 0.0 0.0 0.0 0.0 0.0 0.0 0.0 0.0 0.0 0.0 0.0 0.0 0.0 0.0 0.0 0.0 0.4 0.1 0.2 0.1 0.5 0.6 0.5 0.7 0.7 0.7 0.6
0.0 0.3 0.2 0.1 0.0 0.0 0.0 0.0 0.0 0.0 0.0 0.0 0.0 0.0 0.0 0.0 0.0 0.0 0.0 0.0 0.0 0.0 0.0 0.0 0.0 0.0 0.0 0.0 0.0 0.0 0.0 0.0 0.0 0.0 0.0 0.0 0.2 0.2 0.4 0.8 1.1 1.1 0.8
0.0 0.0 0.0 0.0 0.0 0.0 0.0 0.0 0.0 0.0 0.0 0.0 0.0 0.0 0.0 0.0 0.0 0.0 0.0 0.0 0.0 0.0 0.0 0.0 0.0 0.0 0.0 0.0 0.0 0.0 0.0 0.0 0.0 0.0 0.0 0.0 0.0 0.0 0.1 0.1 0.2 0.0 0.1
0.0 0.0 0.0 0.0 0.0 0.0 0.0 0.0 0.0 0.0 0.0 0.0 0.0 0.0 0.0 0.0 0.0 0.0 0.0 0.0 0.0 0.0 0.0 0.0 0.0 0.0 0.0 0.0 0.0 0.0 0.0 0.0 0.0 0.0 0.0 0.0 0.0 0.0 0.0 0.1 0.1 0.1 0.2
0.0 0.0 0.0 0.0 0.0 0.0 0.0 0.0 0.0 0.0 0.0 0.0 0.0 0.0 0.0 0.0 0.0 0.0 0.0 0.0 0.0 0.0 0.0 0.0 0.0 0.0 0.0 0.0 0.0 0.0 0.0 0.0 0.0 0.0 0.0 0.0 0.1 0.0 0.0 0.2 0.3 0.1 0.1
0.1 0.0 0.0 0.0 0.0 0.0 0.1 0.1 0.1 0.2 0.0 0.2 0.0 0.0 0.0 0.0 0.0 0.0 0.0 0.0 0.0 0.0 0.0 0.0 0.0 0.0 0.0 0.1 0.0 0.0 0.0 0.0 0.0 0.0 0.0 0.0 0.0 0.0 0.0 0.0 0.1 0.3 0.4
0.2 0.0 0.5 0.1 0.3 0.4 0.6 0.7 0.7 0.4 0.1 0.4 0.3 0.4 1.4 0.0 0.9 0.9 0.0 0.1 0.2 0.0 0.0 0.1 0.1 0.0 0.3 0.0 0.0 0.0 0.0 0.0 0.0 0.0 0.0 0.0 0.0 0.0 0.0 0.0 0.0 0.0 0.1
2.9 2.3 2.2 2.1 1.8 1.0 1.1 0.8 1.6 0.9 1.8 1.0 1.3 1.4 1.1 1.9 2.6 2.6 1.5 1.3 0.6 0.6 0.8 1.3 0.4 0.2 1.1 0.6 0.7 0.8 0.8 0.8 0.0 0.9 1.0 1.0 0.2 0.0 0.0 0.1 0.1 0.2 0.2
5.1 7.8 2.8 2.8 3.3 2.7 2.9 3.3 2.9 2.8 1.2 3.0 2.4 2.4 2.5 1.6 1.5 1.2 1.0 0.9 1.1 0.8 1.8 0.9 0.8 1.0 1.5 2.1 2.4 2.8 1.2 0.8 0.9 1.4 0.9 0.9 1.5 3.1 4.3 0.8 0.9 1.2 1.7
5.6 5.3 8.6 8.1 6.4 6.7 4.7 4.0 3.5 5.4 6.4 6.3 6.7 2.4 1.5 1.8 3.5 2.7 4.1 5.4 2.5 2.9 3.3 6.0 2.9 4.7 1.6 2.7 4.6 2.3 3.1 1.3 5.7 2.7 2.8 3.9 1.7 2.1 2.3 0.9 1.3 1.9 2.8
5.2 5.3 4.8 6.3 9.1 8.4 8.6 7.1 6.6 7.6 7.2 6.6 5.9 5.0 5.6 7.4 7.4 7.0 7.8 11.3 13.1 9.8 4.5 5.5 7.0 7.2 5.3 7.7 9.3 4.7 8.2 7.3 3.9 4.7 2.8 4.3 5.4 6.1 2.7 3.2 4.5 7.5 3.6
4.0 3.3 3.7 3.6 2.8 2.2 2.1 6.3 9.1 9.8 8.6 6.5 5.4 6.1 6.1 7.0 8.4 8.6 9.8 9.7 11.2 14.3 16.6 15.3 13.7 13.5 12.7 12.6 10.5 10.1 9.9 8.5 7.7 7.0 6.5 6.6 5.7 4.9 7.0 6.0 6.2 7.2 6.3
2.5 1.3 1.2 0.6 0.4 0.4 0.2 0.9 3.2 5.1 6.0 5.8 6.3 5.9 5.6 5.6 5.2 5.5 6.7 7.6 8.1 7.9 8.1 8.9 10.9 12.4 13.3 14.1 13.8 14.8 14.0 12.5 11.6 12.1 11.8 11.2 7.9 6.4 7.3 7.9 9.5 10.8 7.1
1.7 0.6 0.1 0.0 0.3 0.5 0.6 0.1 1.2 1.3 1.0 1.0 1.1 2.0 2.5 2.7 2.8 3.0 3.2 3.5 4.5 5.4 6.3 6.4 6.3 6.4 6.1 7.4 7.9 8.3 8.1 7.9 10.3 10.6 11.9 10.9 13.7 15.8 13.2 19.0 18.1 14.1 18.1
3.2 1.2 0.6 0.5 0.9 0.5 0.3 1.0 1.1 0.7 0.8 0.5 0.6 0.7 0.9 1.2 1.5 1.9 1.8 1.8 3.1 2.5 2.4 3.9 3.4 3.7 5.7 7.6 6.5 6.5 8.2 8.4 9.2 13.8 19.8 19.8 20.0 19.5 19.6 19.2 19.0 18.6 17.5
2.3 1.5 1.5 1.0 1.3 0.1 1.1 1.6 1.2 0.3 0.1 0.1 0.7 0.2 0.8 0.4 0.7 0.8 1.5 2.0 1.8 1.8 1.2 1.3 4.9 5.6 10.2 13.9 13.4 13.3 13.3 13.9 13.3 12.8 12.9 12.8 11.8 11.5 11.5 10.3 10.3 9.4 8.9